• In Italy
  • List of Countries
  • For 7 days
  • Water Temperature
  • Satellite Maps
  • Weather Map
  • Weather Widgets
  • user-avatar
    Login

    Hourly Weather Eisenstadt

    Today, 22 July, Saturday

    Time Temperature Precipitation Wind Pressure Humidity
    00:00 +21°C° 0 mm 1 mps 721 mmHg 70%
    01:00 +20°C° 0 mm 1 mps 721 mmHg 72%
    02:00 +20°C° 0 mm 1 mps 721 mmHg 73%
    03:00 +20°C° 0 mm 1 mps 721 mmHg 74%
    04:00 +19°C° 0 mm 1 mps 721 mmHg 75%
    05:00 +21°C° 0 mm 1 mps 721 mmHg 72%
    06:00 +21°C° 0 mm 2 mps 721 mmHg 68%
    07:00 +24°C° 0 mm 2 mps 721 mmHg 65%
    08:00 +26°C° 0 mm 2 mps 722 mmHg 58%
    09:00 +28°C° 0 mm 2 mps 722 mmHg 52%
    10:00 +30°C° 0 mm 2 mps 722 mmHg 45%
    11:00 +31°C° 0.3 mm 2 mps 722 mmHg 43%
    12:00 +32°C° 0.3 mm 2 mps 722 mmHg 41%
    13:00 +34°C° 0.3 mm 2 mps 722 mmHg 38%
    14:00 +34°C° 0.2 mm 2 mps 722 mmHg 39%
    15:00 +32°C° 0.2 mm 2 mps 721 mmHg 40%
    16:00 +32°C° 0.2 mm 2 mps 721 mmHg 41%
    17:00 +30°C° 0 mm 2 mps 721 mmHg 46%
    18:00 +29°C° 0 mm 2 mps 721 mmHg 51%
    19:00 +27°C° 0 mm 2 mps 721 mmHg 56%
    20:00 +26°C° 0.1 mm 2 mps 721 mmHg 59%
    21:00 +25°C° 0.1 mm 2 mps 721 mmHg 62%
    22:00 +24°C° 0.1 mm 2 mps 721 mmHg 65%
    23:00 +23°C° 0 mm 2 mps 721 mmHg 68%

    Tomorrow, 23 July, Sunday

    Time Temperature Precipitation Wind Pressure Humidity
    00:00 +22°C° 0 mm 1 mps 721 mmHg 70%
    01:00 +22°C° 0 mm 1 mps 721 mmHg 73%
    02:00 +21°C° 0.1 mm 1 mps 721 mmHg 75%
    03:00 +21°C° 0.1 mm 1 mps 721 mmHg 77%
    04:00 +20°C° 0.1 mm 1 mps 721 mmHg 78%
    05:00 +22°C° 0.2 mm 1 mps 721 mmHg 76%
    06:00 +23°C° 0.2 mm 2 mps 721 mmHg 73%
    07:00 +24°C° 0.2 mm 2 mps 722 mmHg 70%
    08:00 +26°C° 0.4 mm 2 mps 722 mmHg 66%
    09:00 +27°C° 0.4 mm 3 mps 722 mmHg 61%
    10:00 +28°C° 0.4 mm 3 mps 722 mmHg 56%
    11:00 +29°C° 0.3 mm 3 mps 722 mmHg 53%
    12:00 +30°C° 0.3 mm 4 mps 722 mmHg 50%
    13:00 +30°C° 0.3 mm 4 mps 722 mmHg 47%
    14:00 +30°C° 0.5 mm 4 mps 721 mmHg 50%
    15:00 +29°C° 0.5 mm 4 mps 721 mmHg 53%
    16:00 +28°C° 0.5 mm 3 mps 721 mmHg 55%
    17:00 +27°C° 0.5 mm 3 mps 721 mmHg 60%
    18:00 +26°C° 0.5 mm 3 mps 721 mmHg 64%
    19:00 +24°C° 0.5 mm 3 mps 721 mmHg 69%
    20:00 +22°C° 0.4 mm 3 mps 721 mmHg 73%
    21:00 +21°C° 0.4 mm 3 mps 721 mmHg 77%
    22:00 +20°C° 0.4 mm 2 mps 721 mmHg 81%
    23:00 +20°C° 0.7 mm 2 mps 721 mmHg 83%

    Day after tomorrow, 24 July, Monday

    Time Temperature Precipitation Wind Pressure Humidity
    00:00 +19°C° 0.7 mm 2 mps 721 mmHg 85%
    01:00 +19°C° 0.7 mm 2 mps 721 mmHg 87%
    02:00 +18°C° 0.1 mm 2 mps 721 mmHg 87%
    03:00 +18°C° 0.1 mm 2 mps 720 mmHg 87%
    04:00 +18°C° 0.1 mm 2 mps 720 mmHg 87%
    05:00 +18°C° 0 mm 2 mps 720 mmHg 84%
    06:00 +19°C° 0 mm 2 mps 720 mmHg 81%
    07:00 +20°C° 0 mm 3 mps 720 mmHg 78%
    08:00 +21°C° 0.5 mm 2 mps 719 mmHg 74%
    09:00 +21°C° 0.5 mm 2 mps 719 mmHg 71%
    10:00 +23°C° 0.5 mm 2 mps 719 mmHg 67%
    11:00 +24°C° 1.1 mm 2 mps 718 mmHg 67%
    12:00 +24°C° 1.1 mm 2 mps 717 mmHg 67%
    13:00 +24°C° 1.1 mm 2 mps 717 mmHg 67%
    14:00 +24°C° 0.8 mm 2 mps 716 mmHg 70%
    15:00 +24°C° 0.8 mm 2 mps 716 mmHg 74%
    16:00 +23°C° 0.8 mm 1 mps 715 mmHg 78%
    17:00 +21°C° 2.1 mm 2 mps 715 mmHg 82%
    18:00 +20°C° 2.1 mm 3 mps 715 mmHg 86%
    19:00 +18°C° 2.1 mm 4 mps 715 mmHg 90%
    20:00 +17°C° 0.7 mm 4 mps 715 mmHg 89%
    21:00 +17°C° 0.7 mm 4 mps 715 mmHg 87%
    22:00 +15°C° 0.7 mm 4 mps 715 mmHg 86%
    23:00 +15°C° 0.2 mm 4 mps 715 mmHg 87%

    25 July, Tuesday

    Time Temperature Precipitation Wind Pressure Humidity
    00:00 +15°C° 0.2 mm 4 mps 715 mmHg 88%
    01:00 +14°C° 0.2 mm 4 mps 715 mmHg 88%
    02:00 +14°C° 0.1 mm 4 mps 715 mmHg 87%
    03:00 +14°C° 0.1 mm 3 mps 715 mmHg 86%
    04:00 +14°C° 0.1 mm 3 mps 715 mmHg 85%
    05:00 +14°C° 0 mm 4 mps 716 mmHg 81%
    06:00 +15°C° 0 mm 5 mps 716 mmHg 77%
    07:00 +15°C° 0 mm 5 mps 716 mmHg 74%
    08:00 +16°C° 0 mm 6 mps 716 mmHg 67%
    09:00 +17°C° 0 mm 6 mps 716 mmHg 60%
    10:00 +20°C° 0 mm 6 mps 716 mmHg 53%
    11:00 +21°C° 0 mm 6 mps 716 mmHg 49%
    12:00 +22°C° 0 mm 6 mps 717 mmHg 45%
    13:00 +23°C° 0 mm 6 mps 717 mmHg 42%
    14:00 +23°C° 0 mm 6 mps 716 mmHg 43%
    15:00 +23°C° 0 mm 5 mps 716 mmHg 44%
    16:00 +22°C° 0 mm 5 mps 716 mmHg 45%
    17:00 +21°C° 0 mm 5 mps 716 mmHg 50%
    18:00 +20°C° 0 mm 4 mps 717 mmHg 55%
    19:00 +19°C° 0 mm 3 mps 717 mmHg 60%
    20:00 +17°C° 0 mm 3 mps 717 mmHg 64%
    21:00 +16°C° 0 mm 3 mps 717 mmHg 68%
    22:00 +14°C° 0 mm 3 mps 718 mmHg 72%
    23:00 +14°C° 0 mm 3 mps 718 mmHg 73%

    26 July, Wednesday

    Time Temperature Precipitation Wind Pressure Humidity
    00:00 +14°C° 0 mm 2 mps 718 mmHg 74%
    01:00 +14°C° 0 mm 2 mps 718 mmHg 76%
    02:00 +14°C° 0 mm 2 mps 718 mmHg 76%
    03:00 +13°C° 0 mm 2 mps 718 mmHg 77%
    04:00 +13°C° 0 mm 2 mps 718 mmHg 78%
    05:00 +14°C° 0.1 mm 2 mps 718 mmHg 73%
    06:00 +16°C° 0.1 mm 2 mps 719 mmHg 67%
    07:00 +18°C° 0.1 mm 3 mps 719 mmHg 62%
    08:00 +19°C° 0 mm 3 mps 719 mmHg 56%
    09:00 +21°C° 0 mm 3 mps 719 mmHg 51%
    10:00 +24°C° 0 mm 3 mps 720 mmHg 45%
    11:00 +24°C° 0 mm 3 mps 720 mmHg 44%
    12:00 +24°C° 0 mm 3 mps 719 mmHg 43%
    13:00 +25°C° 0 mm 3 mps 719 mmHg 42%
    14:00 +25°C° 0.1 mm 2 mps 719 mmHg 43%
    15:00 +25°C° 0.1 mm 2 mps 719 mmHg 44%
    16:00 +25°C° 0.1 mm 2 mps 719 mmHg 45%
    17:00 +24°C° 0.2 mm 2 mps 719 mmHg 51%
    18:00 +22°C° 0.2 mm 1 mps 719 mmHg 56%
    19:00 +21°C° 0.2 mm 1 mps 719 mmHg 62%
    20:00 +19°C° 0.4 mm 1 mps 719 mmHg 67%
    21:00 +18°C° 0.4 mm 1 mps 719 mmHg 71%
    22:00 +16°C° 0.4 mm 1 mps 719 mmHg 76%
    23:00 +16°C° 0.1 mm 1 mps 719 mmHg 77%

    27 July, Thursday

    Time Temperature Precipitation Wind Pressure Humidity
    00:00 +15°C° 0.1 mm 1 mps 719 mmHg 79%
    01:00 +15°C° 0.1 mm 1 mps 719 mmHg 80%
    02:00 +15°C° 0 mm 1 mps 719 mmHg 81%
    03:00 +14°C° 0 mm 1 mps 719 mmHg 82%
    04:00 +14°C° 0 mm 1 mps 719 mmHg 83%
    05:00 +15°C° 0 mm 1 mps 719 mmHg 79%
    06:00 +17°C° 0 mm 2 mps 719 mmHg 75%
    07:00 +18°C° 0 mm 2 mps 720 mmHg 71%
    08:00 +21°C° 0 mm 3 mps 720 mmHg 62%
    09:00 +24°C° 0 mm 3 mps 720 mmHg 52%
    10:00 +26°C° 0 mm 4 mps 720 mmHg 43%
    11:00 +27°C° 0 mm 4 mps 720 mmHg 40%
    12:00 +28°C° 0 mm 4 mps 720 mmHg 38%
    13:00 +29°C° 0 mm 4 mps 719 mmHg 35%
    14:00 +29°C° 0 mm 4 mps 719 mmHg 36%
    15:00 +29°C° 0 mm 3 mps 719 mmHg 37%
    16:00 +29°C° 0 mm 3 mps 718 mmHg 39%
    17:00 +27°C° 0.3 mm 3 mps 719 mmHg 46%
    18:00 +25°C° 0.3 mm 2 mps 719 mmHg 53%
    19:00 +23°C° 0.3 mm 2 mps 719 mmHg 60%
    20:00 +21°C° 0.8 mm 2 mps 719 mmHg 67%
    21:00 +19°C° 0.8 mm 3 mps 719 mmHg 75%
    22:00 +18°C° 0.8 mm 3 mps 720 mmHg 82%
    23:00 +17°C° 1.1 mm 3 mps 720 mmHg 84%
    Show more